STARLINK-37220, 68398

Orbit data source: Space-Track

STARLINK-37220, 68398 is a payload satellite owned by SpaceX/Seattle (US) in SSO that was launched on Thu, 26 Mar 2026 UTC via an FALCON 9 launch vehicle from the Air Force Western Test Range (AFWTR). Payload-class satellites include a variety of spacecraft equipped with specific instruments for various scientific and technological missions. These include communications satellites like Starlink; space stations such as the ISS; scientific satellites like the Hubble; Earth observation satellites from companies like Planet Labs, Umbra, and HawkEye 360; GPS; miniature CubeSats for education and research; and military/defense satellites.

Loading next visibility...
Identifier
68398, 2026-063U
Orbit
SSO
Country
Flag of USUS
Related business
Manufacturer
SpaceX/Seattle
Mission
Operational spacecraft
Bus & Motor
STARLINK V2MO, Unknown motor
Mass
575 kg wet, ~530 kg dry
Launch date (UTC)
2026-03-26 (1 month ago)
Launch vehicle
FALCON 9
Launch site
Air Force Western Test Range (AFWTR)
Object type
Payload
Rocket body
Debris
Shape & HBR
Unknown shape, 17.7 m
Radar Cross Section
RCS unknown

Expand to show TLE details & history
Last TLE update: 6 hours ago

TLE from 6 hours ago
0 STARLINK-37220
1 68398U 26063U   26119.13222203  .00342030  00000-0  22008-2 0  9991
2 68398  97.2850 261.4250 0002078  73.6695 286.4799 15.75217027  5580
Epoch: 2026-04-29T03:10Z
TLE epoch observation values (Epoch: 2026-04-29T03:10:23.983Z)
Latitude
0.00002°
Longitude
-3.2725°
Altitude
346.786 km
Speed
7.701 km/s
True Right ascension
17h 25m 41s
True Declination
0° 00' 00"
Sunlit
Object was in full shadow at epoch
Visualization orbit readout
Latitude
Unknown
Longitude
Unknown
Altitude
Unknown
Speed
Unknown
Apparent Right ascension
Unknown
Apparent Declination
Unknown
Sunlit
N/A
Visualization observer readout
Local Sidereal Time
16:41:20
Azimuth
Unknown
Elevation
Unknown
Doppler factor
Unknown
Orbital elements
Apogee altitude
342.297 km
Perigee altitude
339.505 km
Semi-major axis
6,719.038 km
Eccentricity
0.00021
Inclination
97.285°
RAAN
261.425°
Arg. of periapsis
73.6695°
True anomaly
286.45706°
Mean anomaly
286.4799°
Eccentric anomaly
286.46848°
Mean motion
3.94078 °/min
Orbital period
91.35 mins
BSTAR
0.0022008
Loading maneuver chart data...
Computing Atmospheric mass density...
Loading historical data...
Loading historical data...
Loading historical data...
Loading historical data...
Loading historical data...
Loading historical data...
Loading historical data...

Documentation

Showing up to 5 results
|